Riverside March, CA

1:51 PM PST on December 16, 2017 (GMT -0800)
March Air Reserve Base

Weather History for KRIV - August, 2014

Change the Weather History Date:

Saturday, August 9, 2014

  Actual Average Record
Temperature  
Mean Temperature 76 °F -  
Max Temperature 93 °F 93 °F 107 °F (2012)
Min Temperature 60 °F 62 °F 49 °F (2010)
Cooling Degree Days 11    
Growing Degree Days 26 (Base 50)    
Moisture  
Dew Point 61 °F    
Average Humidity 69    
Maximum Humidity 100    
Minimum Humidity 31    
Precipitation  
Precipitation 0.00 in - - ()
Sea Level Pressure  
Sea Level Pressure 29.93 in    
Wind  
Wind Speed 5 mph (NW)    
Max Wind Speed 15 mph    
Max Gust Speed -    
Visibility 9 miles    
Events      
Averages and records for this station are not official NWS values.
T = Trace of Precipitation, MM = Missing Value Source: NWS Daily Summary

Daily Weather History Graph

Daily Weather History Graph

Search for Another Location

Airport or City:

Trip Planner

Search our weather history database for the weather conditions in past years. The results will help you decide how hot, cold, wet, or windy it might be!

Date:

Astronomy

Aug. 09, 2014 Rise Set
Actual Time 6:06 AM PDT 7:41 PM PDT
Civil Twilight 5:39 AM PDT 8:08 PM PDT
Nautical Twilight 5:07 AM PDT 8:40 PM PDT
Astronomical Twilight 4:33 AM PDT 9:14 PM PDT
Moon 6:48 PM PDT (8/9) 4:52 AM PDT (8/9)
Length of Visible Light 14h 28m
Length of Day
13h 35m
Waxing Gibbous, 99% of the Moon is Illuminated
Aug 9
Waxing Gibbous
Aug 10
Full
Aug 17
Last Quarter
Aug 25
New
Sep 2
First Quarter

Hourly Weather History & Observations

Time (PDT) Temp. Heat Index Dew Point Humidity Pressure Visibility Wind Dir Wind Speed Gust Speed Precip Events Conditions
12:58 AM 64.0 °F - 60.4 °F 88% 29.94 in 10.0 mi WNW 4.6 mph - N/A   Clear
1:58 AM 63.3 °F - 61.0 °F 92% 29.93 in 10.0 mi West 3.5 mph - N/A   Clear
2:58 AM 62.4 °F - 60.4 °F 93% 29.92 in 10.0 mi WNW 3.5 mph - N/A   Clear
3:58 AM 61.3 °F - 59.7 °F 94% 29.91 in 10.0 mi NW 4.6 mph - N/A   Clear
4:58 AM 61.2 °F - 60.1 °F 96% 29.93 in 9.0 mi Calm Calm - N/A   Clear
5:35 AM 60.8 °F - 60.8 °F 100% 29.96 in 7.0 mi NW 2.3 mph - N/A   Partly Cloudy
5:58 AM 60.3 °F - 59.5 °F 97% 29.93 in 4.0 mi Calm Calm - N/A   Partly Cloudy
6:58 AM 61.9 °F - 61.9 °F 100% 29.94 in 5.0 mi Calm Calm - N/A   Partly Cloudy
7:58 AM 65.5 °F - 62.6 °F 90% 29.95 in 9.0 mi Calm Calm - N/A   Clear
8:58 AM 69.8 °F - 62.6 °F 78% 29.96 in 10.0 mi ENE 2.3 mph - N/A   Clear
9:58 AM 76.1 °F - 62.6 °F 63% 29.96 in 10.0 mi NE 1.2 mph - N/A   Clear
10:58 AM 82.0 °F 82.8 °F 61.9 °F 50% 29.94 in 10.0 mi Variable 3.5 mph - N/A   Clear
11:58 AM 85.8 °F 86.6 °F 62.6 °F 46% 29.94 in 10.0 mi NW 8.1 mph - N/A   Clear
12:58 PM 87.3 °F 88.0 °F 62.8 °F 44% 29.94 in 10.0 mi WNW 10.4 mph - N/A   Clear
1:58 PM 89.8 °F 89.4 °F 60.3 °F 37% 29.92 in 10.0 mi WNW 12.7 mph - N/A   Clear
2:58 PM 92.3 °F 91.6 °F 59.0 °F 33% 29.90 in 10.0 mi West 15.0 mph - N/A   Clear
3:58 PM 92.3 °F 91.0 °F 57.7 °F 31% 29.89 in 10.0 mi NW 13.8 mph - N/A   Clear
4:58 PM 90.5 °F 89.0 °F 57.0 °F 32% 29.88 in 10.0 mi WNW 15.0 mph - N/A   Clear
5:58 PM 87.1 °F 86.1 °F 57.7 °F 37% 29.89 in 10.0 mi WNW 11.5 mph - N/A   Clear
6:58 PM 81.5 °F 82.1 °F 60.8 °F 49% 29.91 in 10.0 mi NW 9.2 mph - N/A   Clear
7:58 PM 76.1 °F - 62.1 °F 62% 29.93 in 10.0 mi WNW 8.1 mph - N/A   Clear
8:58 PM 72.9 °F - 61.5 °F 67% 29.95 in 10.0 mi NW 5.8 mph - N/A   Clear
9:58 PM 70.2 °F - 62.1 °F 75% 29.98 in 10.0 mi WNW 5.8 mph - N/A   Clear
10:58 PM 67.8 °F - 62.4 °F 83% 29.98 in 10.0 mi NW 6.9 mph - N/A   Clear
11:58 PM 65.1 °F - 62.4 °F 91% 29.98 in 10.0 mi WNW 5.8 mph - N/A   Clear